TimeMST,TemperatureF,Dew PointF,Humidity,Sea Level PressureIn,VisibilityMPH,Wind Direction,Wind SpeedMPH,Gust SpeedMPH,PrecipitationIn,Events,Conditions,WindDirDegrees,DateUTC
12:15 AM,35.6,30.2,81,30.24,10.0,WNW,11.5,-,N/A,,Overcast,300,2013-01-17 07:15:00
12:35 AM,35.6,30.2,81,30.24,10.0,NW,10.4,-,N/A,,Overcast,310,2013-01-17 07:35:00
12:55 AM,35.6,30.2,81,30.25,10.0,NW,6.9,-,N/A,,Overcast,310,2013-01-17 07:55:00
1:15 AM,35.6,30.2,81,30.26,10.0,WNW,8.1,-,N/A,,Overcast,290,2013-01-17 08:15:00
1:35 AM,35.6,28.4,75,30.27,10.0,NW,9.2,-,N/A,,Overcast,320,2013-01-17 08:35:00
1:55 AM,35.6,28.4,75,30.27,10.0,NW,11.5,-,N/A,,Overcast,320,2013-01-17 08:55:00
2:35 AM,33.8,28.4,81,30.28,10.0,NW,11.5,-,N/A,,Overcast,320,2013-01-17 09:35:00
2:55 AM,33.8,28.4,81,30.28,10.0,NW,13.8,-,N/A,,Overcast,320,2013-01-17 09:55:00
3:15 AM,33.8,26.6,75,30.28,10.0,NNW,11.5,-,N/A,,Mostly Cloudy,330,2013-01-17 10:15:00
3:35 AM,32.0,26.6,80,30.29,10.0,NNW,10.4,-,N/A,,Overcast,330,2013-01-17 10:35:00
3:55 AM,32.0,26.6,80,30.29,10.0,NNW,9.2,-,N/A,,Overcast,340,2013-01-17 10:55:00
4:15 AM,32.0,26.6,80,30.30,10.0,North,9.2,-,N/A,,Overcast,360,2013-01-17 11:15:00
4:35 AM,32.0,26.6,80,30.30,10.0,Calm,Calm,-,N/A,,Overcast,0,2013-01-17 11:35:00
4:55 AM,30.2,24.8,80,30.31,10.0,North,5.8,-,N/A,,Overcast,350,2013-01-17 11:55:00
5:15 AM,28.4,24.8,86,30.30,10.0,North,5.8,-,N/A,,Overcast,360,2013-01-17 12:15:00
5:35 AM,28.4,24.8,86,30.30,10.0,North,8.1,-,N/A,,Overcast,350,2013-01-17 12:35:00
5:56 AM,28.4,24.8,86,30.30,10.0,North,4.6,-,N/A,,Overcast,10,2013-01-17 12:56:00
6:15 AM,28.4,24.8,86,30.30,10.0,North,8.1,-,N/A,,Overcast,10,2013-01-17 13:15:00
6:35 AM,28.4,24.8,86,30.29,10.0,NE,4.6,-,N/A,,Overcast,50,2013-01-17 13:35:00
7:15 AM,30.2,23.0,75,30.29,10.0,NE,4.6,-,N/A,,Overcast,50,2013-01-17 14:15:00
7:35 AM,30.2,24.8,80,30.30,10.0,NE,3.5,-,N/A,,Overcast,40,2013-01-17 14:35:00
8:15 AM,28.4,24.8,86,30.31,10.0,Calm,Calm,-,N/A,,Overcast,0,2013-01-17 15:15:00
8:35 AM,28.4,24.8,86,30.30,10.0,ESE,5.8,-,N/A,,Overcast,110,2013-01-17 15:35:00
8:55 AM,28.4,24.8,86,30.31,10.0,SE,4.6,-,N/A,,Overcast,130,2013-01-17 15:55:00
9:15 AM,28.4,24.8,86,30.30,10.0,SE,5.8,-,N/A,,Overcast,140,2013-01-17 16:15:00
9:35 AM,28.4,24.8,86,30.30,10.0,ESE,3.5,-,N/A,,Overcast,120,2013-01-17 16:35:00
9:55 AM,30.2,24.8,80,30.28,10.0,SE,5.8,-,N/A,,Overcast,140,2013-01-17 16:55:00
10:15 AM,30.2,24.8,80,30.26,10.0,SSE,4.6,-,N/A,,Overcast,150,2013-01-17 17:15:00
10:35 AM,30.2,26.6,86,30.26,10.0,SSE,3.5,-,N/A,,Overcast,160,2013-01-17 17:35:00
10:55 AM,32.0,26.6,80,30.24,10.0,Calm,Calm,-,N/A,,Overcast,0,2013-01-17 17:55:00
11:15 AM,33.8,26.6,75,30.23,10.0,Calm,Calm,-,N/A,,Mostly Cloudy,0,2013-01-17 18:15:00
11:35 AM,33.8,28.4,81,30.21,10.0,East,4.6,-,N/A,,Partly Cloudy,100,2013-01-17 18:35:00
11:55 AM,33.8,28.4,81,30.20,10.0,East,3.5,-,N/A,,Scattered Clouds,100,2013-01-17 18:55:00
12:15 PM,35.6,28.4,75,30.19,10.0,East,5.8,-,N/A,,Mostly Cloudy,90,2013-01-17 19:15:00
12:35 PM,35.6,30.2,81,30.16,10.0,ESE,6.9,-,N/A,,Overcast,110,2013-01-17 19:35:00
12:55 PM,35.6,30.2,81,30.15,10.0,South,8.1,-,N/A,,Mostly Cloudy,170,2013-01-17 19:55:00
1:35 PM,37.4,32.0,81,30.12,10.0,SSE,9.2,-,N/A,,Overcast,150,2013-01-17 20:35:00
1:55 PM,37.4,30.2,75,30.10,10.0,South,5.8,-,N/A,,Overcast,170,2013-01-17 20:55:00
2:15 PM,35.6,28.4,75,30.10,10.0,South,6.9,-,N/A,,Overcast,190,2013-01-17 21:15:00
2:35 PM,35.6,30.2,81,30.08,10.0,South,6.9,-,N/A,,Overcast,190,2013-01-17 21:35:00
2:55 PM,35.6,28.4,75,30.07,10.0,South,8.1,-,N/A,,Overcast,190,2013-01-17 21:55:00
3:15 PM,35.6,28.4,75,30.07,10.0,SSW,6.9,-,N/A,,Overcast,200,2013-01-17 22:15:00
3:35 PM,35.6,28.4,75,30.05,10.0,South,8.1,-,N/A,,Overcast,190,2013-01-17 22:35:00
3:55 PM,35.6,28.4,75,30.05,10.0,SSW,6.9,-,N/A,,Overcast,200,2013-01-17 22:55:00
4:15 PM,33.8,28.4,81,30.05,10.0,South,6.9,-,N/A,,Overcast,190,2013-01-17 23:15:00
4:35 PM,35.6,28.4,75,30.04,10.0,SSW,5.8,-,N/A,,Overcast,200,2013-01-17 23:35:00
4:55 PM,35.6,28.4,75,30.03,10.0,SSW,6.9,-,N/A,,Overcast,200,2013-01-17 23:55:00
5:15 PM,35.6,28.4,75,30.01,10.0,SSW,9.2,-,N/A,,Overcast,200,2013-01-18 00:15:00
5:35 PM,33.8,30.2,87,30.01,10.0,SSW,11.5,-,N/A,,Overcast,200,2013-01-18 00:35:00
5:55 PM,33.8,28.4,81,30.00,10.0,SSW,8.1,-,N/A,,Overcast,200,2013-01-18 00:55:00
6:16 PM,33.8,28.4,81,29.99,10.0,SSW,8.1,-,N/A,,Overcast,200,2013-01-18 01:16:00
6:35 PM,33.8,28.4,81,29.98,10.0,SSW,10.4,-,N/A,,Overcast,200,2013-01-18 01:35:00
6:55 PM,33.8,28.4,81,29.98,10.0,South,8.1,-,N/A,,Overcast,190,2013-01-18 01:55:00
7:15 PM,33.8,28.4,81,29.97,10.0,South,8.1,-,N/A,,Scattered Clouds,180,2013-01-18 02:15:00
7:55 PM,32.0,28.4,87,29.94,10.0,South,9.2,-,N/A,,Clear,190,2013-01-18 02:55:00
8:15 PM,33.8,28.4,81,29.93,10.0,South,8.1,-,N/A,,Clear,180,2013-01-18 03:15:00
8:35 PM,32.0,28.4,87,29.91,10.0,South,8.1,-,N/A,,Clear,190,2013-01-18 03:35:00
8:55 PM,30.2,28.4,93,29.89,10.0,South,9.2,-,N/A,,Clear,190,2013-01-18 03:55:00
9:15 PM,30.2,28.4,93,29.88,10.0,South,6.9,-,N/A,,Clear,190,2013-01-18 04:15:00
9:35 PM,30.2,26.6,86,29.87,10.0,SSW,8.1,-,N/A,,Clear,200,2013-01-18 04:35:00
9:55 PM,32.0,28.4,87,29.86,10.0,SSW,11.5,-,N/A,,Clear,210,2013-01-18 04:55:00
10:15 PM,35.6,28.4,75,29.87,10.0,Calm,Calm,-,N/A,,Clear,0,2013-01-18 05:15:00
10:35 PM,33.8,30.2,87,29.86,10.0,Calm,Calm,-,N/A,,Clear,0,2013-01-18 05:35:00
10:55 PM,33.8,28.4,81,29.85,10.0,SSW,10.4,-,N/A,,Clear,210,2013-01-18 05:55:00
11:15 PM,33.8,28.4,81,29.83,10.0,SSW,11.5,-,N/A,,Clear,200,2013-01-18 06:15:00
11:35 PM,33.8,28.4,81,29.83,10.0,SSW,10.4,-,N/A,,Clear,200,2013-01-18 06:35:00
11:55 PM,33.8,28.4,81,29.83,10.0,SSW,10.4,-,N/A,,Clear,210,2013-01-18 06:55:00